LayerSlider encountered a problem while it tried to show your slider.Please make sure that you've used the right shortcode or method to insert the slider, and check if the corresponding slider exists and it wasn't deleted previously.
2014 – 4 km GENERAL
Class. Nom Prénom Doss. Sexe Caté. Temps Moy.
1 AUGELET Victor 322 M Cadet 00:12:49.09 18,72
2 COLLIN Joaquim 303 M Cadet 00:13:20.02 18,00
3 ABISSET Patrick 338 M Vét. 2 00:14:55.53 16,08
4 RICHARD Gabriel 334 M Minime 00:15:14.24 15,75
5 LEMBOULAS Quentin 308 M Minime 00:15:34.94 15,40
6 LIMITO Jean-François 329 M Vét. 2 00:16:29.84 14,55
7 HANUS-TOURPIN Titoun 321 M Cadet 00:16:54.29 14,20
8 BRENAC Margaux 330 F Minime 00:16:59.16 14,13
9 BOUSSON Thomas 333 M Cadet 00:16:59.67 14,12
10 GIMBREDE Marc 341 M Espoir 00:17:02.60 14,08
11 LAFAGE Adrien 342 M Minime 00:17:09.62 13,99
12 SCHIAVI Theo 312 M Cadet 00:17:28.30 13,74
13 DELIOT Theo 306 M Cadet 00:17:28.74 13,73
14 ZAPPE Michael 339 M Minime 00:17:52.03 13,43
15 FOUQUERAY Nathan 336 M Cadet 00:18:03.67 13,29
16 PORTOLA Antoine 311 M Minime 00:18:40.70 12,85
17 DERROISNE Jeremy 317 M Minime 00:18:43.50 12,82
18 AUTHIER Jeremy 323 M Cadet 00:18:50.03 12,74
19 GUERMEUR Marin 340 M Cadet 00:18:55.10 12,69
20 PASQUALINI Claire 326 F Cadet 00:19:07.37 12,55
21 MAIGNE Marie 315 F Junior 00:19:20.77 12,41
22 VAQUIE Pierre 335 M Minime 00:19:30.88 12,30
23 COUTEAU Mariana 304 F Cadet 00:19:51.21 12,09
24 BERRY Laeticia 302 F Senior 00:20:15.86 11,84
25 TREIL PUGINIER Corinne 316 F Vét. 2 00:20:15.90 11,84
26 BRENAC Charlotte 331 F Cadet 00:20:20.72 11,80
27 BRENAC Yvan 332 M Vét. 1 00:20:20.84 11,80
28 LABAU Céline 320 F Minime 00:20:22.71 11,78
29 BOIVIN Ambre 319 F Minime 00:20:54.97 11,47
30 LIMITO Marylene 328 F Vét. 2 00:20:56.08 11,46
31 METCHE Romnne 318 F Cadet 00:21:20.69 11,24
32 MAIGNE Françoise 314 F Vét. 2 00:21:50.31 10,99
33 VIVOS Christine 313 F Vét. 2 00:21:54.77 10,95
34 BELOSSI Vincent 327 M Senior 00:22:11.86 10,81
35 DEWEZ Magalie 307 F Senior 00:22:40.27 10,59
36 BELOSSI Louise 301 F Junior 00:23:13.66 10,33
37 ROUQUET Catherine 324 F Senior 00:24:56.78 9,62
38 MARCHAND Jacques 309 M Vét. 2 00:25:57.78 9,24
39 MARCHAND Marie-Clotilde 310 F Cadet 00:25:57.78 9,24
40 CASEL Stephanie 325 F Vét. 1 00:27:21.12 8,77